Location: Engazzà
(45.2000°N, 11.0500°E)
Time: 05:31:35
(UTC+00:00)

Daily predictions for brighter satellites

Satellite Brightness Start Highest point End
(mag) Time Altitude Azimuth Time Altitude Azimuth Time Altitude Azimuth
ATLAS CENTAUR R/B 4.3 01:36:30 16° E 01:36:30 16° E 01:38:14 10° ENE
Resurs 1-4 Rocket 4.3 01:36:04 10° N 01:37:26 18° N 01:37:26 18° N
Cosmos 1697 Rocket 4.1 01:38:10 10° NNW 01:45:24 29° E 01:48:41 10° ESE
CZ-2D R/B 4.2 01:41:21 10° N 01:42:55 19° N 01:42:55 19° N
ALOS 4.2 01:49:53 10° NE 01:53:04 25° ENE 01:53:04 25° ENE
IDEFIX/ARIANE 42P 4.3 01:49:34 10° N 01:51:47 26° N 01:51:47 26° N
CZ-2C R/B 4.3 01:54:55 10° NE 01:58:57 25° E 01:59:29 24° ESE
Cosmos 1980 Rocket 3.4 02:19:00 10° NNW 02:24:16 40° NE 02:29:30 10° SE
ADEOS II 3.8 02:20:54 10° N 02:23:08 23° NNW 02:23:08 23° NNW
Cosmos 1151 Rocket 4.4 02:28:11 34° NNE 02:28:11 34° NNE 02:30:44 10° NNE
Cosmos 1346 Rocket 4.4 02:30:39 33° NE 02:30:39 33° NE 02:33:19 10° NNE
Helios 1B rocket 4.0 02:27:51 10° NNE 02:31:30 31° E 02:31:46 31° ESE
USA 305 4.2 02:36:49 35° NNE 02:36:49 35° NNE 02:39:24 10° NE
Cosmos 2369 4.5 02:30:03 10° NNW 02:35:36 51° ENE 02:41:05 10° SE
ARIANE 5 R/B 3.9 02:35:24 10° NNE 02:39:59 35° E 02:43:50 14° SSE
DELTA 2 R/B (1) 4.2 02:44:10 44° SSE 02:44:10 44° SSE 02:49:11 10° E
Meteor 1-27 Rocket 4.4 02:43:58 18° SSE 02:48:11 55° E 02:53:55 10° NNE
Cosmos 676 Rocket 4.1 02:44:11 10° NNW 02:49:25 73° ENE 02:54:40 10° SSE
Meteor 1-10 Rocket 4.1 02:53:15 58° SSW 02:54:26 86° WNW 03:00:05 10° N
Cosmos 1470 Rocket 4.3 02:50:52 10° N 02:55:07 51° ENE 02:59:22 10° SSE
Cosmos 1624 Rocket 3.9 02:56:12 72° WSW 02:56:37 77° WNW 03:01:59 10° NNE
Cosmos 1153 Rocket 4.4 02:56:58 33° S 02:59:56 87° W 03:06:12 10° N
Cosmos 2100 Rocket 4.4 02:54:38 10° S 03:00:40 61° E 03:06:43 10° NNE
Cosmos 1833 Rocket 2.8 03:01:05 53° WNW 03:01:25 54° WNW 03:07:00 10° NNE
CENTAUR R/B 3.4 02:58:53 20° S 03:02:32 44° ESE 03:08:55 10° NE
Cosmos 44 Rocket 3.4 03:02:24 54° S 03:03:18 68° ESE 03:07:59 10° NE
FENGYUN 3A 3.6 02:59:17 10° N 03:04:34 58° WNW 03:05:03 56° W
Cosmos 1447 Rocket 4.4 03:03:00 10° NNW 03:09:13 62° W 03:15:19 10° S
Cosmos 1371 Rocket 4.1 03:10:55 52° W 03:11:25 54° WNW 03:16:33 10° NNE
Cosmos 1484 Rocket 3.8 03:07:42 10° NNE 03:11:33 46° E 03:14:42 14° S
ATLAS CENTAUR R/B 1.7 03:12:30 58° W 03:13:04 64° NW 03:17:55 10° NNE
Atlas Centaur 2 4.1 03:12:00 24° SSW 03:13:24 25° SSW 03:19:24 10° SE
Cosmos 375 4.2 03:13:11 77° WSW 03:13:27 85° NW 03:17:55 10° NE
USA 307 3.5 03:13:49 42° NNW 03:13:57 42° NNW 03:17:54 10° NE
Meteor 1-4 Rocket 4.3 03:11:12 10° NNW 03:12:36 22° NNW 03:12:36 22° NNW
Cosmos 2360 4.4 03:09:32 10° NW 03:15:25 44° WSW 03:20:19 10° S
METEOR-M 4.0 03:12:23 10° NNE 03:17:47 87° WNW 03:21:30 21° SSW
SL-19 R/B 4.4 03:11:45 10° N 03:17:53 62° WNW 03:20:31 33° SW
IRS-P3 4.1 03:16:18 10° NNE 03:21:40 86° ESE 03:26:27 13° SSW
Cosmos 2082 Rocket 2.1 03:19:35 29° SSW 03:22:35 88° WNW 03:28:15 10° NNE
USA 306 3.8 03:24:27 32° NW 03:25:06 34° NNW 03:28:53 10° NE
Cosmos 1697 Rocket 3.2 03:22:14 10° NW 03:27:50 36° WSW 03:32:28 10° S
NOSS 3-2 (A) 3.5 03:24:48 21° SSW 03:28:31 66° ESE 03:34:42 10° NE
CZ-2C R/B 2.5 03:23:53 10° S 03:29:06 80° WSW 03:34:28 10° NNW
ALOS 2.8 03:27:00 10° N 03:31:15 36° WNW 03:31:32 35° WNW
Cosmos 1461 3.5 03:30:24 21° S 03:32:51 51° ESE 03:36:53 10° NE
BREEZE-M DEB (TANK) 2.7 03:32:42 37° NNW 03:33:12 43° N 03:35:27 10° E
Meteor 1-11 Rocket 4.0 03:28:09 10° NNW 03:33:54 50° W 03:39:34 10° SSW
Cosmos 1850 Rocket 4.3 03:29:28 10° NNW 03:34:49 72° ENE 03:40:09 10° SSE
Cosmos 1459 Rocket 4.0 03:29:25 10° S 03:35:47 81° W 03:42:12 10° N
COSMOS 2406 3.3 03:34:02 31° WSW 03:36:36 55° WNW 03:42:12 10° NNE
Cosmos 1743 4.1 03:33:24 10° NNW 03:35:14 24° NW 03:35:14 24° NW
CZ-2C R/B 2.8 03:32:39 10° N 03:37:20 41° WNW 03:38:51 32° WSW
Cosmos 1954 Rocket 4.4 03:34:46 10° NW 03:39:35 38° WSW 03:44:24 10° S
Cosmos 2346 Rocket 4.4 03:35:03 10° NNW 03:41:04 65° W 03:47:05 10° S
PAYLOAD A 4.4 03:36:49 10° N 03:41:19 40° WNW 03:43:09 29° WSW
Cosmos 2056 Rocket 4.2 03:40:20 29° W 03:41:29 33° WNW 03:46:05 10° N
Cosmos 1441 Rocket 3.7 03:42:10 35° WNW 03:42:10 35° WNW 03:45:33 10° N
DELTA 2 DEB (DPAF) 4.0 03:38:50 10° S 03:43:12 66° WSW 03:47:36 10° NNW
Cosmos 1633 Rocket 4.3 03:43:14 10° NNW 03:45:35 23° WNW 03:45:35 23° WNW
USA 308 4.0 03:46:41 23° WNW 03:48:19 31° NNW 03:52:01 10° NE
Tsikada Rocket 4.5 03:42:20 10° N 03:48:38 64° E 03:54:47 10° SSE
X-37B 0.2 03:50:05 50° W 03:50:42 76° S 03:53:35 10° ESE
Cosmos 1802 Rocket 4.0 03:45:58 10° SSW 03:52:21 77° W 03:58:41 10° N
CZ-2C R/B 3.4 03:48:48 10° NNE 03:54:36 78° ESE 04:00:05 10° S
YAOGAN 6 2.5 03:51:52 10° N 03:55:28 62° WNW 03:59:00 10° SSW
Meteor 1-19 Rocket 4.0 03:52:51 10° SSW 03:58:16 73° WNW 04:03:42 10° N
Cosmos 1725 Rocket 4.0 03:52:03 10° S 03:58:22 88° W 04:04:45 10° N
H-2A R/B 2.8 03:56:05 10° NNE 03:59:44 76° ESE 04:03:24 10° S
Cosmos 1933 Rocket 3.6 03:55:42 10° NNW 04:00:02 55° W 04:04:20 10° S
Cosmos 2322 Rocket 3.5 03:54:56 10° NNW 04:00:22 43° ENE 04:05:44 10° SE
CZ-2C R/B 3.3 03:57:57 10° NNE 04:01:42 60° ESE 04:05:30 10° S
Lacrosse 4 Rocket 2.1 03:57:57 10° NNW 04:02:16 60° ENE 04:06:39 10° SE
Cosmos 1536 4.0 04:00:41 10° NW 04:03:44 21° W 04:03:44 21° W
Cosmos 1741 Rocket 3.9 03:59:23 10° NNW 04:04:36 69° WSW 04:09:46 10° S
PSLV R/B 3.8 04:00:57 10° NNE 04:05:18 71° ESE 04:09:34 10° S
Spot 4 Rocket 4.0 04:00:49 10° NNE 04:05:59 81° WNW 04:11:06 10° SSW
Cosmos 1346 Rocket 4.5 04:06:06 16° WNW 04:06:06 16° WNW 04:08:35 10° NNW
Helios 1B rocket 3.6 04:03:12 10° NNW 04:06:29 24° WNW 04:07:56 19° W
Cosmos 1980 Rocket 2.7 04:03:11 10° NW 04:08:10 34° WSW 04:13:07 10° SSW
Cosmos 2173 Rocket 4.2 04:03:24 10° SSW 04:09:12 44° WNW 04:15:01 10° N
GP-B 3.2 04:08:33 10° SSW 04:12:51 51° W 04:17:12 10° NNW
USA 234 3.7 04:06:56 10° NE 04:13:25 62° SE 04:19:52 10° SW
Meteor 2-9 Rocket 4.4 04:08:04 10° NNW 04:13:36 51° W 04:18:58 10° SSW
USA 305 4.4 04:12:19 12° WNW 04:15:17 25° N 04:18:45 10° NE
SKYMED 2 4.0 04:12:38 10° SSE 04:16:56 67° ENE 04:21:16 10° N
Cosmos 1331 Rocket 3.9 04:12:54 10° SSW 04:18:02 76° WNW 04:23:14 10° NNE
ARIANE 5 R/B 3.3 04:14:36 10° N 04:19:00 31° WNW 04:23:21 10° SW
CZ-2D R/B 4.4 04:20:32 10° N 04:23:53 27° WNW 04:27:16 10° SW
SL-08 R/B 3.9 04:19:44 10° SSW 04:23:55 33° W 04:28:12 10° NNW
SL-24 R/B - RUBIN 2 3.5 04:20:36 10° SW 04:25:02 72° NW 04:29:24 10° NNE
Cosmos 2278 4.0 04:21:03 10° NW 04:26:24 45° WSW 04:31:44 10° S
SL-16 R/B 2.2 04:23:13 10° NNW 04:28:55 86° WSW 04:34:36 10° SSE
DELTA 2 R/B (1) 4.2 04:24:56 12° WSW 04:29:51 45° S 04:35:09 10° ESE
ATLAS 5 CENTAUR R/B 4.3 04:27:38 10° N 04:30:39 16° NNE 04:33:59 10° ENE
H-2A R/B 4.4 04:26:02 10° NNE 04:30:48 30° E 04:35:31 10° SSE
Cosmos 1110 Rocket 4.1 04:26:18 10° SW 04:31:24 53° WNW 04:36:30 10° NNE
MINOTAUR 4 R/B 4.0 04:29:23 10° S 04:32:50 59° WSW 04:36:19 10° NNW
BREEZE M DEB (TANK) 3.4 04:20:51 10° WSW 04:32:57 75° NNW 04:36:28 10° ENE
NOAA 11 4.2 04:27:40 10° N 04:33:08 72° WNW 04:38:33 10° SSW
Cosmos 2228 Rocket 3.1 04:29:00 10° SSW 04:33:28 67° W 04:37:55 10° N
Cosmos 1452 Rocket 4.2 04:29:16 10° SW 04:34:06 36° WNW 04:38:59 10° N
Lacrosse 5 rocket 4.3 04:33:30 10° SSE 04:36:32 18° ESE 04:39:33 10° E
USA 276 3.8 04:35:56 10° SSW 04:38:35 28° SE 04:41:15 10° E
CZ-4C R/B 4.1 04:37:02 10° SSW 04:40:51 34° W 04:44:49 10° NNW
USA 290 4.2 04:38:14 10° N 04:41:11 32° ENE 04:44:07 10° SE
Cosmos 1733 3.5 04:37:29 10° N 04:41:13 71° E 04:44:56 10° SSE
Envisat 3.7 04:37:03 10° N 04:41:34 33° WNW 04:46:03 10° SW
Meteor 1-18 Rocket 4.4 04:39:02 10° SSW 04:44:34 51° WNW 04:50:03 10° N
Meteor 2-19 Rocket 4.5 04:38:36 10° NNW 04:44:42 64° W 04:50:46 10° S
Cosmos 1484 Rocket 4.5 04:42:56 10° NNW 04:45:27 16° WNW 04:47:58 10° WSW
